sat.trackr.live / text

‹ back to catalog

STARLINK-32857

NORAD 62949 · 2025-029B

PAYLOAD ACTIVE UNKNOWN

§ Identity

Operator
Country
US
Launch date
2025-02-11
Launch site
AFWTR
Launch vehicle
Mass (kg)
RCS (m²)

Purposes: comms

External: N2YO · Heavens-Above · Gunter

§ Orbital elements

Epoch: 2026-09-21T14:55:05.461536Z

Period
93.85 min
Inclination
53.1608°
Eccentricity
0.0001217
Mean motion
15.34398822 rev/d
Perigee alt
461.9 km
Apogee alt
463.5 km
Semi-major
6,840.8 km
B*
4.3030e-4
RAAN
36.1418°
Arg perigee
72.6405°
Mean anomaly
287.4731°
Rev number
9,144

§ Raw data

STARLINK-328571 62949U 25029B   26264.62159099  .00014189  00000+0  43030-3 0  99942 62949  53.1608  36.1418 0001217  72.6405 287.4731 15.34398822 91448

JSON: /api/v1/satellites/62949 · /tle

For live sub-satellite position, see the globe view (requires WebGL).

§ Visibility from observer

Set your observer location to see the next 7 days of passes ≥ 10°. The values pass through the URL so the page stays shareable.

No JS? Fill the form by hand. The geolocation button needs JavaScript.